This is the latest recevied weather packets stored in our database for station/object KC4GS-13. If no packets are shown the sender has not sent any weather packets the latest 10 day(s).
| Time | Temp. | Humidity | Pressure | Rain* | Wind** | Luminosity | Snow |
|---|---|---|---|---|---|---|---|
| 1777994264 | 24.44° C | 61% | 1018.4 hPa | 0 mm | - | 819 W/m² | - |
| 1777993962 | 23.89° C | 61% | 1018.8 hPa | 0 mm | - | 459 W/m² | - |
| 1777993658 | 23.33° C | 64% | 1018.6 hPa | 0 mm | - | 513 W/m² | - |
| 1777993356 | 22.78° C | 64% | 1018.9 hPa | 0 mm | - | 818 W/m² | - |
| 1777993050 | 22.78° C | 67% | 1018.8 hPa | 0 mm | - | 747 W/m² | - |
| 1777992749 | 22.78° C | 68% | 1018.6 hPa | 0 mm | - | 216 W/m² | - |
| 1777992446 | 22.22° C | 68% | 1018.6 hPa | 0 mm | - | 179 W/m² | - |
| 1777992144 | 22.22° C | 69% | 1018.8 hPa | 0 mm | - | 308 W/m² | - |
| 1777991841 | 21.67° C | 71% | 1018.3 hPa | 0 mm | - | 93 W/m² | - |
| 1777991538 | 21.11° C | 71% | 1018.3 hPa | 0 mm | - | 278 W/m² | - |
| 1777991235 | 21.67° C | 72% | 1018.4 hPa | 0 mm | - | 57 W/m² | - |
| 1777990932 | 21.11° C | 72% | 1018.8 hPa | 0 mm | - | 284 W/m² | - |
| 1777990630 | 21.11° C | 72% | 1018.4 hPa | 0 mm | - | 107 W/m² | - |
| 1777990327 | 20.56° C | 71% | 1018.4 hPa | 0 mm | - | 58 W/m² | - |
| 1777990023 | 20.56° C | 72% | 1018.2 hPa | 0 mm | - | 112 W/m² | - |
| 1777989720 | 20.56° C | 74% | 1018.1 hPa | 0 mm | - | 209 W/m² | - |
| 1777989416 | 20.56° C | 75% | 1018 hPa | 0 mm | - | 167 W/m² | - |
| 1777989113 | 20° C | 76% | 1018 hPa | 0 mm | - | 159 W/m² | - |
| 1777988809 | 20° C | 76% | 1018 hPa | 0 mm | - | 91 W/m² | - |
| 1777988506 | 20° C | 77% | 1017.8 hPa | 0 mm | - | 128 W/m² | - |
| 1777988203 | 19.44° C | 77% | 1018 hPa | 0 mm | - | 150 W/m² | - |
| 1777987899 | 18.89° C | 79% | 1018 hPa | 0 mm | - | 88 W/m² | - |
| 1777987595 | 18.89° C | 80% | 1018 hPa | 0 mm | - | 94 W/m² | - |
| 1777987293 | 18.33° C | 82% | 1017.9 hPa | 0 mm | - | 139 W/m² | - |
| 1777986990 | 17.78° C | 83% | 1018.3 hPa | 0 mm | - | 99 W/m² | - |
* Rain latest hour (hover to see other rain measurements)
** Current wind speed in m/s (hover to see current wind gust speed)